Multibeam Report for FK150410


Ship Name: Falkor
Chief Scientist: Ivey, Gregory
University of Western Australia
Source Organization: Rolling Deck to Repository
Start Date: 2015-04-10
End Date: 2015-05-04


View ISO Metadata

Visit the full NCEI Bathymetry Viewer


Multibeam Bathymetry

Cruise Details

Project: Timor Sea Reef Connections
Instrument: Kongsberg EM302 and EM710

Data Quality

Number of Files: 346
Number of Records: 4153767
BATHYMETRY DATA Quantity Percentage
Number of Beams 1673832720 100%
Number of Good Beams 1642867275 98.15%
Number of Zero Beams 26 0.0%
Number of Flagged Beams 30965419 1.85%
AMPLITUDE DATA Quantity Percentage
Number of Beams 1673832720 100%
Number of Good Beams 1642867275 98.15%
Number of Zero Beams 26 0.0%
Number of Flagged Beams 30965419 1.85%
SIDESCAN DATA Quantity Percentage
Number of Pixels 4253443072 100%
Number of Good Pixels 3585569177 84.3%
Number of Zero Pixels 0 0%
Number of Flagged Pixels 667873895 15.7%

Navigation Totals

Total Time: 237.0725 hours
Total Track Length: 2917.8539 km
Average Speed: 12.308 km/hr (6.6458 knots)

Cruise Bounds

Northern Extent: -12.396868
Southern Extent: -18.023056
Western Extent: 121.53628
Eastern Extent: 127.290985

Limits

Minimum Sonar Depth 1.1649 Maximum Sonar Depth 9.3456
Minimum Altitude 0 Maximum Altitude 1945.0045
Minimum Depth 10.9196 Maximum Depth 1973.2264
Minimum Amplitude 0 Maximum Amplitude 68.4
Minimum Sidescan 0 Maximum Sidescan 327.66

File Information

Full Resolution Bathymetry as collected (raw): 342

Files File Size Description
0000_20150407_010859_FK150410_EM302.all.mb58.gz 0.56MB Kongsberg multibeam vendor format
0001_20150423_225117_FK150410_EM302.all.mb58.gz 0.91MB Kongsberg multibeam vendor format
0002_20150423_234500_FK150410_EM302.all.mb58.gz 106.63MB Kongsberg multibeam vendor format
0003_20150424_004454_FK150410_EM302.all.mb58.gz 104.67MB Kongsberg multibeam vendor format
0004_20150424_014456_FK150410_EM302.all.mb58.gz 82.91MB Kongsberg multibeam vendor format
0005_20150424_023253_FK150410_EM302.all.mb58.gz 34.07MB Kongsberg multibeam vendor format
0006_20150424_032343_FK150410_EM302.all.mb58.gz 117.10MB Kongsberg multibeam vendor format
0007_20150424_042337_FK150410_EM302.all.mb58.gz 164.58MB Kongsberg multibeam vendor format
0008_20150424_052334_FK150410_EM302.all.mb58.gz 179.48MB Kongsberg multibeam vendor format
0009_20150424_062335_FK150410_EM302.all.mb58.gz 170.36MB Kongsberg multibeam vendor format
0009_20150424_072215_FK150410_EM302.all.mb58.gz 181.15MB Kongsberg multibeam vendor format
0010_20150424_082216_FK150410_EM302.all.mb58.gz 190.74MB Kongsberg multibeam vendor format
0011_20150424_092215_FK150410_EM302.all.mb58.gz 7.40MB Kongsberg multibeam vendor format
0012_20150424_092456_FK150410_EM302.all.mb58.gz 89.8KB Kongsberg multibeam vendor format
0013_20150501_075727_FK150410_EM302.all.mb58.gz 148.99MB Kongsberg multibeam vendor format
0014_20150501_085719_FK150410_EM302.all.mb58.gz 153.46MB Kongsberg multibeam vendor format
0015_20150501_095720_FK150410_EM302.all.mb58.gz 174.15MB Kongsberg multibeam vendor format
0016_20150501_105720_FK150410_EM302.all.mb58.gz 161.13MB Kongsberg multibeam vendor format
0017_20150501_115721_FK150410_EM302.all.mb58.gz 156.99MB Kongsberg multibeam vendor format
0018_20150501_125721_FK150410_EM302.all.mb58.gz 151.66MB Kongsberg multibeam vendor format
0019_20150501_135720_FK150410_EM302.all.mb58.gz 123.60MB Kongsberg multibeam vendor format
0020_20150501_145720_FK150410_EM302.all.mb58.gz 165.15MB Kongsberg multibeam vendor format
0021_20150501_155719_FK150410_EM302.all.mb58.gz 173.85MB Kongsberg multibeam vendor format
0022_20150501_165720_FK150410_EM302.all.mb58.gz 179.66MB Kongsberg multibeam vendor format
0023_20150501_175720_FK150410_EM302.all.mb58.gz 181.80MB Kongsberg multibeam vendor format
0024_20150501_185719_FK150410_EM302.all.mb58.gz 187.15MB Kongsberg multibeam vendor format
0025_20150501_195720_FK150410_EM302.all.mb58.gz 197.01MB Kongsberg multibeam vendor format
0026_20150501_205720_FK150410_EM302.all.mb58.gz 197.27MB Kongsberg multibeam vendor format
0027_20150501_215719_FK150410_EM302.all.mb58.gz 198.98MB Kongsberg multibeam vendor format
0028_20150501_225720_FK150410_EM302.all.mb58.gz 203.29MB Kongsberg multibeam vendor format
0029_20150501_235719_FK150410_EM302.all.mb58.gz 226.94MB Kongsberg multibeam vendor format
0030_20150502_005720_FK150410_EM302.all.mb58.gz 246.42MB Kongsberg multibeam vendor format
0031_20150502_015719_FK150410_EM302.all.mb58.gz 254.54MB Kongsberg multibeam vendor format
0032_20150502_025720_FK150410_EM302.all.mb58.gz 259.35MB Kongsberg multibeam vendor format
0033_20150502_035720_FK150410_EM302.all.mb58.gz 274.16MB Kongsberg multibeam vendor format
0034_20150502_045720_FK150410_EM302.all.mb58.gz 291.63MB Kongsberg multibeam vendor format
0035_20150502_055720_FK150410_EM302.all.mb58.gz 387.14MB Kongsberg multibeam vendor format
0036_20150502_065720_FK150410_EM302.all.mb58.gz 469.50MB Kongsberg multibeam vendor format
0037_20150502_075720_FK150410_EM302.all.mb58.gz 443.40MB Kongsberg multibeam vendor format
0038_20150502_085720_FK150410_EM302.all.mb58.gz 422.05MB Kongsberg multibeam vendor format
0039_20150502_095720_FK150410_EM302.all.mb58.gz 424.91MB Kongsberg multibeam vendor format
0040_20150502_105720_FK150410_EM302.all.mb58.gz 426.07MB Kongsberg multibeam vendor format
0041_20150502_115720_FK150410_EM302.all.mb58.gz 417.03MB Kongsberg multibeam vendor format
0042_20150502_125720_FK150410_EM302.all.mb58.gz 431.58MB Kongsberg multibeam vendor format
0043_20150502_135721_FK150410_EM302.all.mb58.gz 462.75MB Kongsberg multibeam vendor format
0044_20150502_145721_FK150410_EM302.all.mb58.gz 494.03MB Kongsberg multibeam vendor format
0045_20150502_155721_FK150410_EM302.all.mb58.gz 430.83MB Kongsberg multibeam vendor format
0046_20150502_165721_FK150410_EM302.all.mb58.gz 400.30MB Kongsberg multibeam vendor format
0047_20150502_175721_FK150410_EM302.all.mb58.gz 423.32MB Kongsberg multibeam vendor format
0048_20150502_185721_FK150410_EM302.all.mb58.gz 449.20MB Kongsberg multibeam vendor format
0049_20150502_195721_FK150410_EM302.all.mb58.gz 469.08MB Kongsberg multibeam vendor format
0050_20150502_205721_FK150410_EM302.all.mb58.gz 448.18MB Kongsberg multibeam vendor format
0000_20150407_011043_FK150410_EM710.all.mb58.gz 0.70MB Kongsberg multibeam vendor format
0001_20150410_050603_FK150410_EM710.all.mb58.gz 306.96MB Kongsberg multibeam vendor format
0002_20150410_060559_FK150410_EM710.all.mb58.gz 273.02MB Kongsberg multibeam vendor format
0003_20150410_070558_FK150410_EM710.all.mb58.gz 124.23MB Kongsberg multibeam vendor format
0004_20150410_080558_FK150410_EM710.all.mb58.gz 76.37MB Kongsberg multibeam vendor format
0005_20150410_090559_FK150410_EM710.all.mb58.gz 76.52MB Kongsberg multibeam vendor format
0006_20150410_100559_FK150410_EM710.all.mb58.gz 588.55MB Kongsberg multibeam vendor format
0007_20150410_110558_FK150410_EM710.all.mb58.gz 735.10MB Kongsberg multibeam vendor format
0008_20150410_120558_FK150410_EM710.all.mb58.gz 734.76MB Kongsberg multibeam vendor format
0009_20150410_130558_FK150410_EM710.all.mb58.gz 724.56MB Kongsberg multibeam vendor format
0010_20150410_140558_FK150410_EM710.all.mb58.gz 730.92MB Kongsberg multibeam vendor format
0011_20150410_150558_FK150410_EM710.all.mb58.gz 717.13MB Kongsberg multibeam vendor format
0012_20150410_160559_FK150410_EM710.all.mb58.gz 713.59MB Kongsberg multibeam vendor format
0013_20150410_170559_FK150410_EM710.all.mb58.gz 714.01MB Kongsberg multibeam vendor format
0014_20150410_180559_FK150410_EM710.all.mb58.gz 710.94MB Kongsberg multibeam vendor format
0015_20150410_190559_FK150410_EM710.all.mb58.gz 717.23MB Kongsberg multibeam vendor format
0016_20150410_200559_FK150410_EM710.all.mb58.gz 236.14MB Kongsberg multibeam vendor format
0017_20150410_204221_FK150410_EM710.all.mb58.gz 562.86MB Kongsberg multibeam vendor format
0018_20150410_214217_FK150410_EM710.all.mb58.gz 125.45MB Kongsberg multibeam vendor format
0019_20150410_221615_FK150410_EM710.all.mb58.gz 133.21MB Kongsberg multibeam vendor format
0020_20150411_023052_FK150410_EM710.all.mb58.gz 776.43MB Kongsberg multibeam vendor format
0021_20150411_033048_FK150410_EM710.all.mb58.gz 176.11MB Kongsberg multibeam vendor format
0022_20150411_041656_FK150410_EM710.all.mb58.gz 337.48MB Kongsberg multibeam vendor format
0023_20150411_053450_FK150410_EM710.all.mb58.gz 806.84MB Kongsberg multibeam vendor format
0024_20150411_063450_FK150410_EM710.all.mb58.gz 853.81MB Kongsberg multibeam vendor format
0025_20150411_073450_FK150410_EM710.all.mb58.gz 766.23MB Kongsberg multibeam vendor format
0026_20150411_083450_FK150410_EM710.all.mb58.gz 125.94MB Kongsberg multibeam vendor format
0027_20150412_231828_FK150410_EM710.all.mb58.gz 633.54MB Kongsberg multibeam vendor format
0028_20150417_220420_FK150410_EM710.all.mb58.gz 430.10MB Kongsberg multibeam vendor format
0029_20150417_230416_FK150410_EM710.all.mb58.gz 36.80MB Kongsberg multibeam vendor format
0030_20150420_052816_FK150410_EM710.all.mb58.gz 118.19MB Kongsberg multibeam vendor format
0031_20150420_062813_FK150410_EM710.all.mb58.gz 55.02MB Kongsberg multibeam vendor format
0032_20150420_065144_FK150410_EM710.all.mb58.gz 328.68MB Kongsberg multibeam vendor format
0033_20150420_075145_FK150410_EM710.all.mb58.gz 143.63MB Kongsberg multibeam vendor format
0034_20150420_085144_FK150410_EM710.all.mb58.gz 171.37MB Kongsberg multibeam vendor format
0035_20150420_095146_FK150410_EM710.all.mb58.gz 170.93MB Kongsberg multibeam vendor format
0036_20150420_105145_FK150410_EM710.all.mb58.gz 165.55MB Kongsberg multibeam vendor format
0037_20150420_115146_FK150410_EM710.all.mb58.gz 146.05MB Kongsberg multibeam vendor format
0038_20150420_125145_FK150410_EM710.all.mb58.gz 168.34MB Kongsberg multibeam vendor format
0039_20150420_135145_FK150410_EM710.all.mb58.gz 168.64MB Kongsberg multibeam vendor format
0040_20150420_145146_FK150410_EM710.all.mb58.gz 170.69MB Kongsberg multibeam vendor format
0041_20150420_155146_FK150410_EM710.all.mb58.gz 259.82MB Kongsberg multibeam vendor format
0042_20150420_165146_FK150410_EM710.all.mb58.gz 324.55MB Kongsberg multibeam vendor format
0043_20150420_175145_FK150410_EM710.all.mb58.gz 340.14MB Kongsberg multibeam vendor format
0044_20150420_185146_FK150410_EM710.all.mb58.gz 342.03MB Kongsberg multibeam vendor format
0045_20150420_195146_FK150410_EM710.all.mb58.gz 346.84MB Kongsberg multibeam vendor format
0046_20150420_205146_FK150410_EM710.all.mb58.gz 402.02MB Kongsberg multibeam vendor format
0047_20150420_215145_FK150410_EM710.all.mb58.gz 589.43MB Kongsberg multibeam vendor format
0048_20150420_231337_FK150410_EM710.all.mb58.gz 467.01MB Kongsberg multibeam vendor format
0049_20150421_001338_FK150410_EM710.all.mb58.gz 176.19MB Kongsberg multibeam vendor format
0050_20150421_061533_FK150410_EM710.all.mb58.gz 43.41MB Kongsberg multibeam vendor format
0051_20150421_063239_FK150410_EM710.all.mb58.gz 688.04MB Kongsberg multibeam vendor format
0052_20150421_071857_FK150410_EM710.all.mb58.gz 710.41MB Kongsberg multibeam vendor format
0053_20150421_080443_FK150410_EM710.all.mb58.gz 779.64MB Kongsberg multibeam vendor format
0054_20150421_085443_FK150410_EM710.all.mb58.gz 506.23MB Kongsberg multibeam vendor format
0055_20150421_093806_FK150410_EM710.all.mb58.gz 688.61MB Kongsberg multibeam vendor format
0056_20150421_102616_FK150410_EM710.all.mb58.gz 357.12MB Kongsberg multibeam vendor format
0057_20150421_110855_FK150410_EM710.all.mb58.gz 577.29MB Kongsberg multibeam vendor format
0058_20150421_115251_FK150410_EM710.all.mb58.gz 355.62MB Kongsberg multibeam vendor format
0059_20150421_121537_FK150410_EM710.all.mb58.gz 714.78MB Kongsberg multibeam vendor format
0060_20150421_131536_FK150410_EM710.all.mb58.gz 490.69MB Kongsberg multibeam vendor format
0061_20150421_141537_FK150410_EM710.all.mb58.gz 459.74MB Kongsberg multibeam vendor format
0062_20150421_151537_FK150410_EM710.all.mb58.gz 461.02MB Kongsberg multibeam vendor format
0063_20150421_161537_FK150410_EM710.all.mb58.gz 525.55MB Kongsberg multibeam vendor format
0064_20150421_171537_FK150410_EM710.all.mb58.gz 523.64MB Kongsberg multibeam vendor format
0065_20150421_181537_FK150410_EM710.all.mb58.gz 488.57MB Kongsberg multibeam vendor format
0066_20150421_191537_FK150410_EM710.all.mb58.gz 436.00MB Kongsberg multibeam vendor format
0067_20150421_201537_FK150410_EM710.all.mb58.gz 416.83MB Kongsberg multibeam vendor format
0068_20150421_211538_FK150410_EM710.all.mb58.gz 415.54MB Kongsberg multibeam vendor format
0069_20150421_221537_FK150410_EM710.all.mb58.gz 414.09MB Kongsberg multibeam vendor format
0070_20150421_231537_FK150410_EM710.all.mb58.gz 443.12MB Kongsberg multibeam vendor format
0071_20150422_001537_FK150410_EM710.all.mb58.gz 717.82MB Kongsberg multibeam vendor format
0072_20150422_010339_FK150410_EM710.all.mb58.gz 655.64MB Kongsberg multibeam vendor format
0073_20150422_014959_FK150410_EM710.all.mb58.gz 524.32MB Kongsberg multibeam vendor format
0074_20150422_023512_FK150410_EM710.all.mb58.gz 807.79MB Kongsberg multibeam vendor format
0075_20150422_032355_FK150410_EM710.all.mb58.gz 823.06MB Kongsberg multibeam vendor format
0076_20150422_041651_FK150410_EM710.all.mb58.gz 702.61MB Kongsberg multibeam vendor format
0077_20150422_050355_FK150410_EM710.all.mb58.gz 98.01MB Kongsberg multibeam vendor format
0078_20150422_053317_FK150410_EM710.all.mb58.gz 762.41MB Kongsberg multibeam vendor format
0079_20150422_062839_FK150410_EM710.all.mb58.gz 267.26MB Kongsberg multibeam vendor format
0080_20150422_070749_FK150410_EM710.all.mb58.gz 878.69MB Kongsberg multibeam vendor format
0081_20150422_075738_FK150410_EM710.all.mb58.gz 1251.55MB Kongsberg multibeam vendor format
0082_20150422_085235_FK150410_EM710.all.mb58.gz 1277.64MB Kongsberg multibeam vendor format
0083_20150422_094806_FK150410_EM710.all.mb58.gz 669.76MB Kongsberg multibeam vendor format
0084_20150422_104047_FK150410_EM710.all.mb58.gz 3.92MB Kongsberg multibeam vendor format
0085_20150422_104057_FK150410_EM710.all.mb58.gz 1252.33MB Kongsberg multibeam vendor format
0086_20150422_113600_FK150410_EM710.all.mb58.gz 1213.31MB Kongsberg multibeam vendor format
0087_20150422_123047_FK150410_EM710.all.mb58.gz 1154.94MB Kongsberg multibeam vendor format
0088_20150422_132438_FK150410_EM710.all.mb58.gz 1080.20MB Kongsberg multibeam vendor format
0089_20150422_141735_FK150410_EM710.all.mb58.gz 1124.83MB Kongsberg multibeam vendor format
0090_20150422_151053_FK150410_EM710.all.mb58.gz 365.87MB Kongsberg multibeam vendor format
0091_20150423_084146_FK150410_EM710.all.mb58.gz 407.39MB Kongsberg multibeam vendor format
0092_20150423_094142_FK150410_EM710.all.mb58.gz 408.81MB Kongsberg multibeam vendor format
0093_20150423_104143_FK150410_EM710.all.mb58.gz 393.61MB Kongsberg multibeam vendor format
0094_20150423_114142_FK150410_EM710.all.mb58.gz 296.85MB Kongsberg multibeam vendor format
0095_20150423_124142_FK150410_EM710.all.mb58.gz 186.61MB Kongsberg multibeam vendor format
0096_20150423_134143_FK150410_EM710.all.mb58.gz 170.67MB Kongsberg multibeam vendor format
0097_20150423_144142_FK150410_EM710.all.mb58.gz 168.89MB Kongsberg multibeam vendor format
0098_20150423_154142_FK150410_EM710.all.mb58.gz 124.23MB Kongsberg multibeam vendor format
0099_20150423_164143_FK150410_EM710.all.mb58.gz 115.72MB Kongsberg multibeam vendor format
0100_20150423_174142_FK150410_EM710.all.mb58.gz 116.37MB Kongsberg multibeam vendor format
0101_20150423_184143_FK150410_EM710.all.mb58.gz 119.18MB Kongsberg multibeam vendor format
0102_20150423_194143_FK150410_EM710.all.mb58.gz 132.48MB Kongsberg multibeam vendor format
0103_20150423_204144_FK150410_EM710.all.mb58.gz 19.66MB Kongsberg multibeam vendor format
0103_20150423_205240_FK150410_EM710.all.mb58.gz 99.45MB Kongsberg multibeam vendor format
0103_20150423_214513_FK150410_EM710.all.mb58.gz 0.72MB Kongsberg multibeam vendor format
0104_20150423_214621_FK150410_EM710.all.mb58.gz 100.84MB Kongsberg multibeam vendor format
0105_20150423_224620_FK150410_EM710.all.mb58.gz 87.76MB Kongsberg multibeam vendor format
0106_20150423_234545_FK150410_EM710.all.mb58.gz 0.70MB Kongsberg multibeam vendor format
0107_20150424_092514_FK150410_EM710.all.mb58.gz 770.90MB Kongsberg multibeam vendor format
0108_20150424_102510_FK150410_EM710.all.mb58.gz 206.68MB Kongsberg multibeam vendor format
0109_20150424_210153_FK150410_EM710.all.mb58.gz 109.17MB Kongsberg multibeam vendor format
0110_20150424_220154_FK150410_EM710.all.mb58.gz 87.70MB Kongsberg multibeam vendor format
0111_20150424_225228_FK150410_EM710.all.mb58.gz 138.75MB Kongsberg multibeam vendor format
0112_20150424_234023_FK150410_EM710.all.mb58.gz 212.14MB Kongsberg multibeam vendor format
0113_20150425_004023_FK150410_EM710.all.mb58.gz 220.25MB Kongsberg multibeam vendor format
0114_20150425_014024_FK150410_EM710.all.mb58.gz 239.31MB Kongsberg multibeam vendor format
0115_20150425_024023_FK150410_EM710.all.mb58.gz 237.87MB Kongsberg multibeam vendor format
0116_20150425_034024_FK150410_EM710.all.mb58.gz 201.87MB Kongsberg multibeam vendor format
0117_20150425_044023_FK150410_EM710.all.mb58.gz 168.44MB Kongsberg multibeam vendor format
0118_20150425_054023_FK150410_EM710.all.mb58.gz 139.29MB Kongsberg multibeam vendor format
0119_20150425_060453_FK150410_EM710.all.mb58.gz 210.91MB Kongsberg multibeam vendor format
0120_20150425_070453_FK150410_EM710.all.mb58.gz 184.82MB Kongsberg multibeam vendor format
0121_20150425_080452_FK150410_EM710.all.mb58.gz 190.81MB Kongsberg multibeam vendor format
0122_20150425_090452_FK150410_EM710.all.mb58.gz 235.20MB Kongsberg multibeam vendor format
0123_20150425_100453_FK150410_EM710.all.mb58.gz 107.97MB Kongsberg multibeam vendor format
0124_20150425_105758_FK150410_EM710.all.mb58.gz 45.95MB Kongsberg multibeam vendor format
0125_20150425_110853_FK150410_EM710.all.mb58.gz 12.67MB Kongsberg multibeam vendor format
0126_20150425_111120_FK150410_EM710.all.mb58.gz 17.50MB Kongsberg multibeam vendor format
0127_20150425_111446_FK150410_EM710.all.mb58.gz 32.11MB Kongsberg multibeam vendor format
0128_20150425_112146_FK150410_EM710.all.mb58.gz 16.89MB Kongsberg multibeam vendor format
0129_20150425_112614_FK150410_EM710.all.mb58.gz 3.69MB Kongsberg multibeam vendor format
0130_20150425_112729_FK150410_EM710.all.mb58.gz 8.81MB Kongsberg multibeam vendor format
0131_20150425_113039_FK150410_EM710.all.mb58.gz 116.99MB Kongsberg multibeam vendor format
0132_20150425_123035_FK150410_EM710.all.mb58.gz 91.01MB Kongsberg multibeam vendor format
0133_20150425_185346_FK150410_EM710.all.mb58.gz 334.45MB Kongsberg multibeam vendor format
0134_20150425_224119_FK150410_EM710.all.mb58.gz 404.03MB Kongsberg multibeam vendor format
0135_20150427_042338_FK150410_EM710.all.mb58.gz 767.02MB Kongsberg multibeam vendor format
0136_20150427_053132_FK150410_EM710.all.mb58.gz 58.10MB Kongsberg multibeam vendor format
0137_20150427_072528_FK150410_EM710.all.mb58.gz 856.02MB Kongsberg multibeam vendor format
0138_20150427_082528_FK150410_EM710.all.mb58.gz 862.99MB Kongsberg multibeam vendor format
0139_20150427_092528_FK150410_EM710.all.mb58.gz 786.71MB Kongsberg multibeam vendor format
0140_20150427_102528_FK150410_EM710.all.mb58.gz 800.22MB Kongsberg multibeam vendor format
0141_20150427_112528_FK150410_EM710.all.mb58.gz 823.77MB Kongsberg multibeam vendor format
0142_20150427_122529_FK150410_EM710.all.mb58.gz 849.82MB Kongsberg multibeam vendor format
0143_20150427_132528_FK150410_EM710.all.mb58.gz 725.88MB Kongsberg multibeam vendor format
0144_20150427_142529_FK150410_EM710.all.mb58.gz 711.56MB Kongsberg multibeam vendor format
0145_20150427_152529_FK150410_EM710.all.mb58.gz 709.79MB Kongsberg multibeam vendor format
0146_20150427_162529_FK150410_EM710.all.mb58.gz 395.78MB Kongsberg multibeam vendor format
0147_20150427_171547_FK150410_EM710.all.mb58.gz 31.69MB Kongsberg multibeam vendor format
0148_20150427_171906_FK150410_EM710.all.mb58.gz 264.27MB Kongsberg multibeam vendor format
0149_20150427_174149_FK150410_EM710.all.mb58.gz 517.28MB Kongsberg multibeam vendor format
0150_20150427_182329_FK150410_EM710.all.mb58.gz 743.24MB Kongsberg multibeam vendor format
0151_20150427_192329_FK150410_EM710.all.mb58.gz 733.67MB Kongsberg multibeam vendor format
0152_20150427_202330_FK150410_EM710.all.mb58.gz 1.11MB Kongsberg multibeam vendor format
0153_20150427_202350_FK150410_EM710.all.mb58.gz 708.34MB Kongsberg multibeam vendor format
0154_20150427_212350_FK150410_EM710.all.mb58.gz 729.14MB Kongsberg multibeam vendor format
0155_20150427_224826_FK150410_EM710.all.mb58.gz 737.47MB Kongsberg multibeam vendor format
0156_20150427_234826_FK150410_EM710.all.mb58.gz 208.47MB Kongsberg multibeam vendor format
0157_20150428_051514_FK150410_EM710.all.mb58.gz 232.88MB Kongsberg multibeam vendor format
0158_20150428_061511_FK150410_EM710.all.mb58.gz 471.25MB Kongsberg multibeam vendor format
0159_20150428_095611_FK150410_EM710.all.mb58.gz 588.56MB Kongsberg multibeam vendor format
0160_20150428_180002_FK150410_EM710.all.mb58.gz 0.97MB Kongsberg multibeam vendor format
0161_20150428_180007_FK150410_EM710.all.mb58.gz 714.48MB Kongsberg multibeam vendor format
0162_20150428_190007_FK150410_EM710.all.mb58.gz 759.64MB Kongsberg multibeam vendor format
0163_20150428_200007_FK150410_EM710.all.mb58.gz 706.52MB Kongsberg multibeam vendor format
0164_20150428_210007_FK150410_EM710.all.mb58.gz 749.68MB Kongsberg multibeam vendor format
0165_20150428_220007_FK150410_EM710.all.mb58.gz 587.32MB Kongsberg multibeam vendor format
0166_20150428_224549_FK150410_EM710.all.mb58.gz 28.73MB Kongsberg multibeam vendor format
0167_20150428_224820_FK150410_EM710.all.mb58.gz 759.64MB Kongsberg multibeam vendor format
0168_20150428_234820_FK150410_EM710.all.mb58.gz 75.29MB Kongsberg multibeam vendor format
0169_20150428_235400_FK150410_EM710.all.mb58.gz 183.81MB Kongsberg multibeam vendor format
0170_20150429_002357_FK150410_EM710.all.mb58.gz 291.73MB Kongsberg multibeam vendor format
0171_20150429_012354_FK150410_EM710.all.mb58.gz 601.65MB Kongsberg multibeam vendor format
0172_20150429_022353_FK150410_EM710.all.mb58.gz 738.45MB Kongsberg multibeam vendor format
0173_20150429_032353_FK150410_EM710.all.mb58.gz 746.95MB Kongsberg multibeam vendor format
0174_20150429_042353_FK150410_EM710.all.mb58.gz 753.13MB Kongsberg multibeam vendor format
0175_20150429_052353_FK150410_EM710.all.mb58.gz 748.94MB Kongsberg multibeam vendor format
0176_20150429_062353_FK150410_EM710.all.mb58.gz 750.75MB Kongsberg multibeam vendor format
0177_20150429_072353_FK150410_EM710.all.mb58.gz 745.94MB Kongsberg multibeam vendor format
0178_20150429_082353_FK150410_EM710.all.mb58.gz 492.69MB Kongsberg multibeam vendor format
0179_20150429_130732_FK150410_EM710.all.mb58.gz 14.95MB Kongsberg multibeam vendor format
0180_20150429_130852_FK150410_EM710.all.mb58.gz 762.69MB Kongsberg multibeam vendor format
0181_20150429_140852_FK150410_EM710.all.mb58.gz 527.47MB Kongsberg multibeam vendor format
0182_20150429_145007_FK150410_EM710.all.mb58.gz 738.99MB Kongsberg multibeam vendor format
0183_20150429_155007_FK150410_EM710.all.mb58.gz 231.04MB Kongsberg multibeam vendor format
0184_20150429_160846_FK150410_EM710.all.mb58.gz 234.20MB Kongsberg multibeam vendor format
0185_20150429_162751_FK150410_EM710.all.mb58.gz 12.41MB Kongsberg multibeam vendor format
0186_20150429_163139_FK150410_EM710.all.mb58.gz 226.14MB Kongsberg multibeam vendor format
0187_20150429_165006_FK150410_EM710.all.mb58.gz 87.54MB Kongsberg multibeam vendor format
0188_20150429_165709_FK150410_EM710.all.mb58.gz 235.10MB Kongsberg multibeam vendor format
0189_20150429_171606_FK150410_EM710.all.mb58.gz 125.9KB Kongsberg multibeam vendor format
0190_20150429_171608_FK150410_EM710.all.mb58.gz 18.82MB Kongsberg multibeam vendor format
0191_20150429_172216_FK150410_EM710.all.mb58.gz 235.87MB Kongsberg multibeam vendor format
0192_20150429_174119_FK150410_EM710.all.mb58.gz 39.69MB Kongsberg multibeam vendor format
0193_20150429_174430_FK150410_EM710.all.mb58.gz 41.02MB Kongsberg multibeam vendor format
0194_20150429_174749_FK150410_EM710.all.mb58.gz 241.52MB Kongsberg multibeam vendor format
0195_20150429_180707_FK150410_EM710.all.mb58.gz 17.30MB Kongsberg multibeam vendor format
0197_20150429_181237_FK150410_EM710.all.mb58.gz 240.62MB Kongsberg multibeam vendor format
0198_20150429_183202_FK150410_EM710.all.mb58.gz 65.14MB Kongsberg multibeam vendor format
0199_20150429_183718_FK150410_EM710.all.mb58.gz 243.85MB Kongsberg multibeam vendor format
0201_20150429_185643_FK150410_EM710.all.mb58.gz 17.46MB Kongsberg multibeam vendor format
0202_20150429_190135_FK150410_EM710.all.mb58.gz 241.13MB Kongsberg multibeam vendor format
0203_20150429_192035_FK150410_EM710.all.mb58.gz 65.24MB Kongsberg multibeam vendor format
0204_20150429_192548_FK150410_EM710.all.mb58.gz 243.34MB Kongsberg multibeam vendor format
0205_20150429_194435_FK150410_EM710.all.mb58.gz 21.69MB Kongsberg multibeam vendor format
0206_20150429_195000_FK150410_EM710.all.mb58.gz 120.42MB Kongsberg multibeam vendor format
0207_20150429_195919_FK150410_EM710.all.mb58.gz 146.52MB Kongsberg multibeam vendor format
0208_20150429_201042_FK150410_EM710.all.mb58.gz 401.67MB Kongsberg multibeam vendor format
0209_20150429_204551_FK150410_EM710.all.mb58.gz 237.99MB Kongsberg multibeam vendor format
0210_20150429_210427_FK150410_EM710.all.mb58.gz 260.71MB Kongsberg multibeam vendor format
0211_20150429_212645_FK150410_EM710.all.mb58.gz 341.74MB Kongsberg multibeam vendor format
0212_20150429_215608_FK150410_EM710.all.mb58.gz 344.00MB Kongsberg multibeam vendor format
0213_20150429_222810_FK150410_EM710.all.mb58.gz 760.77MB Kongsberg multibeam vendor format
0214_20150429_232810_FK150410_EM710.all.mb58.gz 755.68MB Kongsberg multibeam vendor format
0215_20150430_002810_FK150410_EM710.all.mb58.gz 748.44MB Kongsberg multibeam vendor format
0216_20150430_012810_FK150410_EM710.all.mb58.gz 741.27MB Kongsberg multibeam vendor format
0217_20150430_022810_FK150410_EM710.all.mb58.gz 742.34MB Kongsberg multibeam vendor format
0218_20150430_032810_FK150410_EM710.all.mb58.gz 755.16MB Kongsberg multibeam vendor format
0219_20150430_042810_FK150410_EM710.all.mb58.gz 772.36MB Kongsberg multibeam vendor format
0220_20150430_052810_FK150410_EM710.all.mb58.gz 829.59MB Kongsberg multibeam vendor format
0221_20150430_062810_FK150410_EM710.all.mb58.gz 596.65MB Kongsberg multibeam vendor format
0222_20150430_100753_FK150410_EM710.all.mb58.gz 765.89MB Kongsberg multibeam vendor format
0223_20150430_110753_FK150410_EM710.all.mb58.gz 161.93MB Kongsberg multibeam vendor format
0224_20150430_112019_FK150410_EM710.all.mb58.gz 216.80MB Kongsberg multibeam vendor format
0225_20150430_113649_FK150410_EM710.all.mb58.gz 68.61MB Kongsberg multibeam vendor format
0226_20150430_114157_FK150410_EM710.all.mb58.gz 253.83MB Kongsberg multibeam vendor format
0227_20150430_120108_FK150410_EM710.all.mb58.gz 18.96MB Kongsberg multibeam vendor format
0228_20150430_120238_FK150410_EM710.all.mb58.gz 60.1KB Kongsberg multibeam vendor format
0229_20150430_120238_FK150410_EM710.all.mb58.gz 462.43MB Kongsberg multibeam vendor format
0230_20150430_123742_FK150410_EM710.all.mb58.gz 103.99MB Kongsberg multibeam vendor format
0231_20150430_124548_FK150410_EM710.all.mb58.gz 353.73MB Kongsberg multibeam vendor format
0232_20150430_131230_FK150410_EM710.all.mb58.gz 160.54MB Kongsberg multibeam vendor format
0233_20150430_132422_FK150410_EM710.all.mb58.gz 500.84MB Kongsberg multibeam vendor format
0234_20150430_140121_FK150410_EM710.all.mb58.gz 92.63MB Kongsberg multibeam vendor format
0235_20150430_140811_FK150410_EM710.all.mb58.gz 215.44MB Kongsberg multibeam vendor format
0236_20150430_142430_FK150410_EM710.all.mb58.gz 55.12MB Kongsberg multibeam vendor format
0237_20150430_142858_FK150410_EM710.all.mb58.gz 172.74MB Kongsberg multibeam vendor format
0238_20150430_144247_FK150410_EM710.all.mb58.gz 163.16MB Kongsberg multibeam vendor format
0239_20150430_145450_FK150410_EM710.all.mb58.gz 69.63MB Kongsberg multibeam vendor format
0240_20150430_145951_FK150410_EM710.all.mb58.gz 63.48MB Kongsberg multibeam vendor format
0241_20150430_150432_FK150410_EM710.all.mb58.gz 353.12MB Kongsberg multibeam vendor format
0243_20150430_153121_FK150410_EM710.all.mb58.gz 225.11MB Kongsberg multibeam vendor format
0244_20150430_154904_FK150410_EM710.all.mb58.gz 281.87MB Kongsberg multibeam vendor format
0245_20150430_160934_FK150410_EM710.all.mb58.gz 373.28MB Kongsberg multibeam vendor format
0246_20150430_163742_FK150410_EM710.all.mb58.gz 93.37MB Kongsberg multibeam vendor format
0247_20150430_164513_FK150410_EM710.all.mb58.gz 322.31MB Kongsberg multibeam vendor format
0248_20150430_170930_FK150410_EM710.all.mb58.gz 422.74MB Kongsberg multibeam vendor format
0249_20150430_174112_FK150410_EM710.all.mb58.gz 148.49MB Kongsberg multibeam vendor format
0250_20150430_175255_FK150410_EM710.all.mb58.gz 295.57MB Kongsberg multibeam vendor format
0252_20150430_181512_FK150410_EM710.all.mb58.gz 77.38MB Kongsberg multibeam vendor format
0253_20150430_182050_FK150410_EM710.all.mb58.gz 305.12MB Kongsberg multibeam vendor format
0254_20150430_184405_FK150410_EM710.all.mb58.gz 149.62MB Kongsberg multibeam vendor format
0255_20150430_185623_FK150410_EM710.all.mb58.gz 273.08MB Kongsberg multibeam vendor format
0256_20150430_191724_FK150410_EM710.all.mb58.gz 72.39MB Kongsberg multibeam vendor format
0258_20150430_192246_FK150410_EM710.all.mb58.gz 281.69MB Kongsberg multibeam vendor format
0259_20150430_194431_FK150410_EM710.all.mb58.gz 130.89MB Kongsberg multibeam vendor format
0260_20150430_195548_FK150410_EM710.all.mb58.gz 144.75MB Kongsberg multibeam vendor format
0261_20150430_200718_FK150410_EM710.all.mb58.gz 120.96MB Kongsberg multibeam vendor format
0263_20150430_201628_FK150410_EM710.all.mb58.gz 336.16MB Kongsberg multibeam vendor format
0264_20150430_204304_FK150410_EM710.all.mb58.gz 316.45MB Kongsberg multibeam vendor format
0265_20150430_210747_FK150410_EM710.all.mb58.gz 193.22MB Kongsberg multibeam vendor format
0266_20150430_212227_FK150410_EM710.all.mb58.gz 58.05MB Kongsberg multibeam vendor format
0267_20150430_212703_FK150410_EM710.all.mb58.gz 192.93MB Kongsberg multibeam vendor format
0268_20150430_214138_FK150410_EM710.all.mb58.gz 140.13MB Kongsberg multibeam vendor format
0269_20150430_215224_FK150410_EM710.all.mb58.gz 77.07MB Kongsberg multibeam vendor format
0270_20150430_215817_FK150410_EM710.all.mb58.gz 26.51MB Kongsberg multibeam vendor format
0271_20150430_220016_FK150410_EM710.all.mb58.gz 84.13MB Kongsberg multibeam vendor format
0272_20150430_220638_FK150410_EM710.all.mb58.gz 55.70MB Kongsberg multibeam vendor format
0273_20150430_221104_FK150410_EM710.all.mb58.gz 69.84MB Kongsberg multibeam vendor format
0274_20150430_221622_FK150410_EM710.all.mb58.gz 730.65MB Kongsberg multibeam vendor format
0275_20150430_231622_FK150410_EM710.all.mb58.gz 674.93MB Kongsberg multibeam vendor format
0276_20150501_001622_FK150410_EM710.all.mb58.gz 420.66MB Kongsberg multibeam vendor format
0277_20150501_061226_FK150410_EM710.all.mb58.gz 814.73MB Kongsberg multibeam vendor format
0278_20150501_071227_FK150410_EM710.all.mb58.gz 146.59MB Kongsberg multibeam vendor format
0279_20150501_081227_FK150410_EM710.all.mb58.gz 108.05MB Kongsberg multibeam vendor format
0280_20150501_091227_FK150410_EM710.all.mb58.gz 112.34MB Kongsberg multibeam vendor format
0281_20150501_101227_FK150410_EM710.all.mb58.gz 116.15MB Kongsberg multibeam vendor format
0282_20150501_111229_FK150410_EM710.all.mb58.gz 111.96MB Kongsberg multibeam vendor format
0283_20150501_121229_FK150410_EM710.all.mb58.gz 111.37MB Kongsberg multibeam vendor format
0284_20150501_131228_FK150410_EM710.all.mb58.gz 106.42MB Kongsberg multibeam vendor format
0285_20150501_141227_FK150410_EM710.all.mb58.gz 105.91MB Kongsberg multibeam vendor format
0286_20150501_151227_FK150410_EM710.all.mb58.gz 114.22MB Kongsberg multibeam vendor format
0287_20150501_161228_FK150410_EM710.all.mb58.gz 116.74MB Kongsberg multibeam vendor format
0288_20150501_171228_FK150410_EM710.all.mb58.gz 118.63MB Kongsberg multibeam vendor format
0289_20150501_181229_FK150410_EM710.all.mb58.gz 118.91MB Kongsberg multibeam vendor format
0290_20150501_191228_FK150410_EM710.all.mb58.gz 150.06MB Kongsberg multibeam vendor format
0291_20150501_201228_FK150410_EM710.all.mb58.gz 171.70MB Kongsberg multibeam vendor format
0292_20150501_211228_FK150410_EM710.all.mb58.gz 172.19MB Kongsberg multibeam vendor format
0293_20150501_221228_FK150410_EM710.all.mb58.gz 87.43MB Kongsberg multibeam vendor format

Metadata Files: 3

Files File Size Description
FK150410_Multibeam.xml NGDC created ISO metadata
em302_bag_info.tar.gz 3.2KB Additional cruise information
em710_bag_info.tar.gz 15.1KB Additional cruise information

Water Column Sonar Data

Water Column Sonar Data Available: WCSD Map Viewer